Location: *
(42.3377°N, 71.0868°W)
Time: 04:29:05
(UTC+00:00)

Cosmos 1726 Rocket - Pass Details

Date: 09 April 2020
Orbit: 602 x 631 km, 82.5° (Epoch: 28 May)

Event Time Altitude Azimuth Distance (km) Brightness Sun altitude
Rises 23:45:23 0° 169° (S) 2,880 6.7 -5.4°
Reaches altitude 10° 23:47:41 10° 162° (SSE) 1,984 5.8 -5.8°
Maximum altitude 23:51:49 42° 92° (E) 903 4.0 -6.5°
Drops below altitude 10° 23:56:01 10° 22° (NNE) 2,013 6.2 -7.3°
Sets 23:58:21 0° 16° (NNE) 2,928 7.1 -7.7°
